QPF
0.01 0.00 0.00 0.00 0.01 0.01 0.02 0.02 0.03 0.03 0.04 0.04 0.03 0.03 0.05 0.04 0.04 0.04 0.04 0.04 0.05 0.05 0.07 0.11 0.16 0.16 0.17 0.17 0.15 0.14 0.12 0.11 0.11 0.11 0.11 0.09 0.07 0.05 0.05 0.07 0.09 0.11 0.09
0.01 0.01 0.01 0.01 0.01 0.01 0.01 0.01 0.02 0.03 0.03 0.02 0.02 0.03 0.06 0.07 0.06 0.06 0.06 0.04 0.04 0.05 0.06 0.07 0.09 0.12 0.14 0.13 0.12 0.11 0.11 0.10 0.11 0.11 0.12 0.11 0.10 0.08 0.07 0.07 0.08 0.09 0.09
0.01 0.01 0.01 0.01 0.00 0.01 0.01 0.01 0.02 0.02 0.02 0.03 0.02 0.03 0.04 0.04 0.06 0.07 0.06 0.05 0.04 0.04 0.05 0.06 0.06 0.07 0.08 0.10 0.09 0.08 0.08 0.09 0.10 0.10 0.10 0.10 0.12 0.11 0.09 0.08 0.09 0.08 0.09
0.00 0.00 0.00 0.01 0.00 0.01 0.01 0.01 0.01 0.01 0.01 0.02 0.02 0.02 0.02 0.04 0.07 0.09 0.07 0.06 0.04 0.03 0.04 0.06 0.06 0.06 0.06 0.07 0.07 0.07 0.08 0.09 0.09 0.12 0.12 0.12 0.14 0.12 0.09 0.09 0.08 0.06 0.05
0.00 0.00 0.00 0.00 0.00 0.00 0.00 0.00 0.00 0.01 0.01 0.01 0.01 0.02 0.03 0.04 0.06 0.08 0.06 0.03 0.03 0.03 0.02 0.03 0.05 0.05 0.05 0.05 0.05 0.07 0.07 0.07 0.08 0.13 0.16 0.15 0.12 0.10 0.08 0.10 0.11 0.07 0.05
0.00 0.00 0.00 0.00 0.00 0.00 0.00 0.00 0.01 0.01 0.02 0.02 0.02 0.02 0.03 0.05 0.06 0.07 0.05 0.03 0.03 0.04 0.03 0.03 0.03 0.04 0.04 0.04 0.05 0.07 0.06 0.07 0.09 0.13 0.16 0.14 0.11 0.08 0.08 0.10 0.10 0.08 0.07
0.00 0.00 0.00 0.00 0.00 0.00 0.00 0.00 0.01 0.01 0.02 0.02 0.02 0.02 0.03 0.04 0.04 0.03 0.04 0.03 0.03 0.04 0.04 0.04 0.03 0.03 0.03 0.04 0.05 0.05 0.06 0.06 0.06 0.08 0.10 0.11 0.12 0.11 0.10 0.11 0.10 0.08 0.05
0.00 0.01 0.00 0.00 0.00 0.00 0.00 0.01 0.01 0.02 0.02 0.02 0.02 0.03 0.03 0.04 0.03 0.03 0.02 0.02 0.03 0.03 0.04 0.04 0.04 0.03 0.04 0.04 0.05 0.05 0.05 0.05 0.05 0.05 0.08 0.08 0.08 0.07 0.08 0.09 0.09 0.08 0.07
0.00 0.00 0.00 0.00 0.00 0.00 0.00 0.01 0.01 0.02 0.02 0.01 0.01 0.01 0.02 0.03 0.03 0.02 0.02 0.02 0.03 0.03 0.05 0.05 0.04 0.05 0.05 0.05 0.05 0.06 0.05 0.05 0.05 0.05 0.08 0.08 0.07 0.07 0.07 0.08 0.08 0.09 0.08
0.00 0.00 0.00 0.00 0.00 0.00 0.00 0.00 0.00 0.01 0.01 0.01 0.01 0.01 0.02 0.02 0.02 0.02 0.02 0.03 0.04 0.05 0.05 0.05 0.04 0.04 0.04 0.04 0.04 0.05 0.05 0.06 0.05 0.05 0.06 0.07 0.07 0.06 0.07 0.09 0.09 0.11 0.10
0.00 0.00 0.00 0.00 0.00 0.00 0.00 0.00 0.00 0.01 0.01 0.02 0.02 0.03 0.04 0.04 0.05 0.04 0.04 0.04 0.05 0.05 0.05 0.06 0.06 0.07 0.06 0.06 0.05 0.05 0.07 0.06 0.05 0.03 0.03 0.03 0.04 0.05 0.05 0.07 0.08 0.10 0.12
0.01 0.00 0.00 0.00 0.00 0.00 0.01 0.01 0.01 0.01 0.01 0.01 0.02 0.03 0.04 0.07 0.10 0.09 0.06 0.06 0.05 0.04 0.04 0.05 0.06 0.07 0.08 0.08 0.08 0.06 0.06 0.05 0.04 0.04 0.03 0.03 0.03 0.04 0.03 0.04 0.04 0.05 0.08
0.00 0.00 0.00 0.00 0.00 0.00 0.01 0.01 0.01 0.01 0.01 0.01 0.02 0.03 0.04 0.05 0.07 0.08 0.06 0.07 0.06 0.05 0.04 0.04 0.06 0.05 0.05 0.04 0.04 0.05 0.06 0.06 0.06 0.06 0.05 0.04 0.04 0.03 0.03 0.03 0.03 0.03 0.04
0.00 0.00 0.00 0.00 0.00 0.00 0.01 0.01 0.01 0.01 0.01 0.02 0.02 0.02 0.04 0.05 0.04 0.06 0.06 0.07 0.07 0.08 0.09 0.08 0.07 0.05 0.03 0.02 0.02 0.03 0.03 0.03 0.03 0.04 0.05 0.05 0.04 0.04 0.04 0.04 0.04 0.05 0.07
0.01 0.00 0.00 0.01 0.00 0.00 0.00 0.01 0.02 0.01 0.01 0.01 0.02 0.03 0.03 0.04 0.06 0.07 0.07 0.08 0.07 0.06 0.08 0.08 0.09 0.08 0.04 0.02 0.02 0.03 0.03 0.02 0.02 0.02 0.02 0.03 0.03 0.03 0.04 0.03 0.05 0.07 0.08
0.02 0.01 0.01 0.01 0.01 0.01 0.01 0.02 0.02 0.02 0.03 0.03 0.03 0.04 0.04 0.05 0.07 0.09 0.08 0.07 0.06 0.06 0.06 0.04 0.03 0.04 0.05 0.05 0.03 0.03 0.04 0.04 0.03 0.03 0.03 0.03 0.02 0.02 0.02 0.02 0.03 0.05 0.06
0.01 0.01 0.01 0.02 0.02 0.03 0.02 0.02 0.03 0.04 0.05 0.05 0.04 0.04 0.04 0.04 0.05 0.06 0.08 0.08 0.06 0.05 0.05 0.05 0.04 0.04 0.04 0.05 0.04 0.04 0.04 0.05 0.05 0.05 0.05 0.04 0.03 0.03 0.02 0.03 0.03 0.03 0.04
0.02 0.01 0.01 0.01 0.01 0.03 0.03 0.03 0.04 0.05 0.04 0.04 0.04 0.04 0.04 0.04 0.05 0.06 0.07 0.08 0.07 0.06 0.05 0.05 0.05 0.04 0.04 0.04 0.04 0.04 0.04 0.04 0.05 0.05 0.05 0.05 0.05 0.04 0.04 0.04 0.04 0.03 0.03
0.01 0.01 0.01 0.01 0.02 0.02 0.03 0.04 0.04 0.04 0.04 0.05 0.05 0.05 0.04 0.04 0.05 0.07 0.08 0.07 0.06 0.05 0.05 0.05 0.04 0.04 0.05 0.04 0.03 0.03 0.02 0.03 0.03 0.03 0.04 0.04 0.04 0.03 0.03 0.03 0.04 0.03 0.04
0.01 0.01 0.01 0.01 0.02 0.02 0.02 0.03 0.03 0.03 0.03 0.04 0.04 0.04 0.04 0.04 0.03 0.04 0.06 0.06 0.06 0.06 0.05 0.04 0.04 0.04 0.04 0.03 0.03 0.03 0.02 0.04 0.03 0.03 0.03 0.02 0.02 0.02 0.02 0.02 0.03 0.03 0.03
0.01 0.01 0.01 0.01 0.01 0.01 0.02 0.03 0.03 0.03 0.04 0.04 0.03 0.03 0.03 0.03 0.03 0.03 0.05 0.06 0.06 0.06 0.05 0.05 0.04 0.04 0.03 0.02 0.03 0.03 0.03 0.03 0.03 0.02 0.02 0.02 0.01 0.01 0.01 0.01 0.02 0.01 0.02
0.01 0.01 0.01 0.01 0.01 0.01 0.02 0.03 0.04 0.04 0.04 0.04 0.04 0.04 0.03 0.02 0.03 0.03 0.04 0.04 0.04 0.04 0.04 0.04 0.04 0.03 0.03 0.02 0.01 0.01 0.01 0.01 0.02 0.02 0.01 0.01 0.01 0.01 0.00 0.00 0.00 0.01 0.01
0.01 0.01 0.02 0.03 0.03 0.02 0.02 0.02 0.03 0.04 0.05 0.05 0.04 0.04 0.03 0.03 0.03 0.03 0.04 0.04 0.03 0.03 0.02 0.02 0.02 0.02 0.03 0.02 0.01 0.01 0.02 0.02 0.02 0.01 0.01 0.01 0.01 0.01 0.00 0.00 0.01 0.01 0.01
0.02 0.02 0.03 0.04 0.05 0.04 0.03 0.02 0.02 0.03 0.04 0.05 0.05 0.04 0.03 0.02 0.02 0.02 0.02 0.01 0.01 0.01 0.01 0.01 0.01 0.01 0.02 0.02 0.02 0.02 0.03 0.03 0.02 0.01 0.01 0.01 0.01 0.01 0.01 0.01 0.02 0.02 0.02
0.02 0.03 0.05 0.06 0.06 0.05 0.05 0.04 0.03 0.03 0.03 0.04 0.05 0.04 0.04 0.04 0.04 0.03 0.02 0.02 0.02 0.02 0.02 0.02 0.02 0.01 0.02 0.02 0.02 0.02 0.02 0.02 0.02 0.03 0.03 0.02 0.02 0.02 0.02 0.03 0.03 0.03 0.02
0.03 0.03 0.04 0.05 0.05 0.05 0.05 0.05 0.05 0.04 0.04 0.03 0.04 0.04 0.04 0.04 0.04 0.03 0.02 0.02 0.03 0.03 0.03 0.02 0.03 0.03 0.03 0.03 0.02 0.02 0.03 0.03 0.03 0.04 0.03 0.03 0.03 0.03 0.04 0.03 0.03 0.02 0.02
MSLP
1004.00 1004.52 1005.04 1005.54 1006.03 1006.52 1007.05 1007.63 1008.25 1008.88 1009.48 1010.00 1010.39 1010.62 1010.70 1010.65 1010.54 1010.43 1010.39 1010.48 1010.72 1011.11 1011.62 1012.18 1012.75 1013.27 1013.69 1014.02 1014.25 1014.39 1014.48 1014.54 1014.59 1014.65 1014.70 1014.74 1014.76 1014.77 1014.75 1014.72 1014.70 1014.70 1014.74
1003.51 1003.99 1004.45 1004.89 1005.32 1005.76 1006.26 1006.83 1007.48 1008.17 1008.86 1009.48 1009.97 1010.28 1010.40 1010.36 1010.22 1010.06 1009.96 1009.99 1010.18 1010.53 1011.03 1011.62 1012.22 1012.79 1013.26 1013.63 1013.89 1014.05 1014.16 1014.24 1014.32 1014.42 1014.52 1014.64 1014.74 1014.81 1014.85 1014.87 1014.86 1014.85 1014.86
1003.26 1003.67 1004.05 1004.40 1004.72 1005.07 1005.48 1005.99 1006.62 1007.34 1008.09 1008.79 1009.37 1009.77 1009.96 1009.97 1009.83 1009.65 1009.50 1009.47 1009.60 1009.91 1010.38 1010.97 1011.59 1012.18 1012.70 1013.11 1013.41 1013.61 1013.75 1013.87 1013.99 1014.13 1014.30 1014.48 1014.65 1014.80 1014.90 1014.96 1014.97 1014.96 1014.94
1003.20 1003.55 1003.85 1004.08 1004.28 1004.49 1004.77 1005.18 1005.75 1006.44 1007.20 1007.96 1008.62 1009.11 1009.38 1009.45 1009.35 1009.17 1009.00 1008.92 1009.00 1009.26 1009.69 1010.25 1010.87 1011.48 1012.03 1012.48 1012.83 1013.08 1013.27 1013.43 1013.61 1013.80 1014.03 1014.27 1014.50 1014.71 1014.86 1014.95 1014.99 1014.97 1014.93
1003.27 1003.57 1003.79 1003.92 1003.99 1004.05 1004.18 1004.46 1004.91 1005.54 1006.28 1007.05 1007.76 1008.33 1008.69 1008.83 1008.79 1008.63 1008.46 1008.36 1008.39 1008.59 1008.97 1009.50 1010.10 1010.71 1011.28 1011.77 1012.17 1012.48 1012.73 1012.95 1013.18 1013.43 1013.71 1014.00 1014.28 1014.52 1014.71 1014.83 1014.88 1014.86 1014.81
1003.38 1003.66 1003.82 1003.87 1003.82 1003.74 1003.73 1003.86 1004.19 1004.71 1005.39 1006.14 1006.87 1007.48 1007.91 1008.12 1008.14 1008.03 1007.87 1007.76 1007.76 1007.92 1008.25 1008.72 1009.29 1009.90 1010.48 1011.00 1011.45 1011.82 1012.13 1012.42 1012.70 1013.01 1013.32 1013.65 1013.96 1014.23 1014.44 1014.58 1014.63 1014.62 1014.57
1003.47 1003.74 1003.89 1003.88 1003.76 1003.58 1003.44 1003.44 1003.63 1004.03 1004.61 1005.30 1006.01 1006.62 1007.09 1007.35 1007.43 1007.37 1007.24 1007.14 1007.12 1007.24 1007.53 1007.95 1008.49 1009.07 1009.65 1010.19 1010.68 1011.10 1011.47 1011.82 1012.16 1012.51 1012.86 1013.22 1013.55 1013.84 1014.06 1014.21 1014.28 1014.28 1014.24
1003.49 1003.79 1003.95 1003.94 1003.78 1003.54 1003.32 1003.20 1003.26 1003.54 1004.00 1004.59 1005.22 1005.80 1006.26 1006.55 1006.67 1006.66 1006.57 1006.49 1006.47 1006.58 1006.83 1007.21 1007.70 1008.25 1008.82 1009.36 1009.87 1010.33 1010.75 1011.15 1011.53 1011.92 1012.31 1012.69 1013.05 1013.35 1013.59 1013.76 1013.85 1013.88 1013.86
1003.47 1003.82 1004.02 1004.04 1003.89 1003.63 1003.35 1003.15 1003.10 1003.25 1003.57 1004.02 1004.54 1005.04 1005.45 1005.73 1005.87 1005.89 1005.85 1005.81 1005.82 1005.93 1006.16 1006.51 1006.96 1007.48 1008.01 1008.54 1009.05 1009.52 1009.97 1010.41 1010.83 1011.26 1011.68 1012.09 1012.46 1012.79 1013.05 1013.24 1013.37 1013.44 1013.47
1003.48 1003.88 1004.13 1004.19 1004.08 1003.83 1003.53 1003.28 1003.13 1003.14 1003.31 1003.60 1003.96 1004.33 1004.65 1004.88 1005.02 1005.07 1005.08 1005.09 1005.15 1005.29 1005.54 1005.88 1006.30 1006.77 1007.27 1007.76 1008.25 1008.72 1009.17 1009.62 1010.08 1010.53 1010.98 1011.42 1011.83 1012.18 1012.48 1012.71 1012.88 1013.00 1013.08
1003.59 1004.02 1004.31 1004.42 1004.34 1004.12 1003.83 1003.53 1003.30 1003.18 1003.18 1003.28 1003.46 1003.66 1003.86 1004.01 1004.11 1004.18 1004.25 1004.33 1004.46 1004.67 1004.96 1005.31 1005.72 1006.16 1006.61 1007.06 1007.51 1007.94 1008.39 1008.84 1009.30 1009.78 1010.27 1010.74 1011.18 1011.57 1011.91 1012.18 1012.40 1012.57 1012.70
1003.86 1004.29 1004.59 1004.72 1004.67 1004.48 1004.19 1003.86 1003.55 1003.30 1003.12 1003.03 1002.99 1003.00 1003.04 1003.09 1003.15 1003.23 1003.35 1003.52 1003.76 1004.05 1004.41 1004.81 1005.23 1005.65 1006.06 1006.46 1006.86 1007.25 1007.67 1008.11 1008.58 1009.07 1009.58 1010.08 1010.56 1010.99 1011.37 1011.69 1011.94 1012.15 1012.33
1004.31 1004.70 1004.97 1005.09 1005.04 1004.86 1004.56 1004.19 1003.80 1003.42 1003.07 1002.77 1002.52 1002.33 1002.20 1002.13 1002.13 1002.22 1002.40 1002.67 1003.02 1003.43 1003.88 1004.35 1004.80 1005.23 1005.62 1005.98 1006.32 1006.67 1007.05 1007.47 1007.94 1008.45 1008.98 1009.51 1010.02 1010.49 1010.90 1011.24 1011.52 1011.75 1011.95
1004.89 1005.21 1005.41 1005.48 1005.40 1005.20 1004.88 1004.47 1004.00 1003.50 1002.99 1002.49 1002.04 1001.65 1001.34 1001.15 1001.10 1001.19 1001.43 1001.79 1002.27 1002.81 1003.38 1003.93 1004.44 1004.89 1005.27 1005.60 1005.91 1006.23 1006.58 1006.98 1007.44 1007.96 1008.51 1009.07 1009.60 1010.09 1010.51 1010.86 1011.14 1011.37 1011.56
1005.53 1005.74 1005.84 1005.83 1005.71 1005.47 1005.11 1004.66 1004.13 1003.52 1002.87 1002.20 1001.56 1000.99 1000.53 1000.23 1000.12 1000.21 1000.50 1000.96 1001.55 1002.22 1002.91 1003.56 1004.14 1004.62 1005.02 1005.34 1005.63 1005.93 1006.26 1006.65 1007.12 1007.65 1008.21 1008.78 1009.33 1009.81 1010.23 1010.56 1010.82 1011.02 1011.18
1006.11 1006.21 1006.21 1006.11 1005.92 1005.64 1005.26 1004.77 1004.18 1003.50 1002.74 1001.95 1001.16 1000.45 999.86 999.46 999.30 999.39 999.72 1000.25 1000.95 1001.72 1002.52 1003.26 1003.91 1004.44 1004.86 1005.20 1005.49 1005.78 1006.11 1006.51 1006.98 1007.52 1008.10 1008.67 1009.21 1009.69 1010.08 1010.37 1010.58 1010.73 1010.85
1006.57 1006.56 1006.46 1006.28 1006.04 1005.72 1005.33 1004.83 1004.22 1003.50 1002.68 1001.80 1000.92 1000.11 999.44 998.98 998.77 998.85 999.21 999.79 1000.56 1001.41 1002.29 1003.10 1003.81 1004.38 1004.83 1005.19 1005.49 1005.80 1006.14 1006.55 1007.03 1007.58 1008.16 1008.74 1009.27 1009.72 1010.06 1010.30 1010.46 1010.54 1010.59
1006.86 1006.76 1006.58 1006.35 1006.07 1005.75 1005.37 1004.89 1004.30 1003.59 1002.77 1001.87 1000.96 1000.10 999.39 998.89 998.67 998.74 999.11 999.72 1000.51 1001.41 1002.32 1003.17 1003.90 1004.51 1004.98 1005.36 1005.67 1005.99 1006.35 1006.77 1007.27 1007.82 1008.41 1008.97 1009.48 1009.89 1010.19 1010.37 1010.46 1010.48 1010.47
1006.97 1006.82 1006.61 1006.36 1006.09 1005.79 1005.45 1005.03 1004.49 1003.84 1003.06 1002.21 1001.33 1000.49 999.79 999.30 999.08 999.15 999.51 1000.12 1000.91 1001.80 1002.70 1003.54 1004.28 1004.88 1005.35 1005.73 1006.05 1006.38 1006.74 1007.17 1007.67 1008.22 1008.79 1009.33 1009.81 1010.19 1010.44 1010.57 1010.60 1010.57 1010.50
1006.97 1006.81 1006.60 1006.37 1006.13 1005.89 1005.62 1005.28 1004.84 1004.28 1003.60 1002.84 1002.05 1001.29 1000.65 1000.20 1000.01 1000.09 1000.44 1001.03 1001.78 1002.63 1003.48 1004.28 1004.97 1005.53 1005.98 1006.33 1006.64 1006.95 1007.30 1007.72 1008.20 1008.73 1009.27 1009.79 1010.23 1010.56 1010.78 1010.87 1010.86 1010.79 1010.69
1006.93 1006.80 1006.62 1006.44 1006.26 1006.10 1005.91 1005.67 1005.34 1004.91 1004.36 1003.73 1003.07 1002.43 1001.90 1001.54 1001.40 1001.50 1001.85 1002.41 1003.10 1003.88 1004.65 1005.37 1005.98 1006.47 1006.85 1007.15 1007.42 1007.69 1008.00 1008.38 1008.82 1009.31 1009.81 1010.27 1010.67 1010.97 1011.16 1011.23 1011.21 1011.12 1011.01
1006.93 1006.85 1006.73 1006.61 1006.51 1006.42 1006.32 1006.18 1005.97 1005.66 1005.27 1004.79 1004.29 1003.80 1003.41 1003.16 1003.10 1003.25 1003.60 1004.12 1004.76 1005.44 1006.12 1006.73 1007.23 1007.63 1007.92 1008.15 1008.34 1008.55 1008.80 1009.11 1009.49 1009.91 1010.34 1010.75 1011.11 1011.38 1011.54 1011.61 1011.59 1011.52 1011.43
1007.02 1007.00 1006.95 1006.89 1006.86 1006.83 1006.81 1006.76 1006.65 1006.47 1006.21 1005.90 1005.56 1005.24 1005.00 1004.88 1004.92 1005.13 1005.50 1005.99 1006.56 1007.16 1007.73 1008.22 1008.61 1008.90 1009.09 1009.22 1009.33 1009.45 1009.62 1009.85 1010.14 1010.48 1010.84 1011.19 1011.50 1011.74 1011.90 1011.97 1011.98 1011.95 1011.89
1007.22 1007.26 1007.26 1007.27 1007.29 1007.31 1007.34 1007.35 1007.31 1007.23 1007.09 1006.92 1006.73 1006.58 1006.49 1006.50 1006.65 1006.92 1007.31 1007.79 1008.31 1008.83 1009.30 1009.69 1009.97 1010.15 1010.24 1010.28 1010.30 1010.33 1010.40 1010.54 1010.74 1010.99 1011.28 1011.57 1011.83 1012.05 1012.21 1012.32 1012.37 1012.38 1012.37
1007.51 1007.60 1007.66 1007.71 1007.76 1007.81 1007.86 1007.89 1007.90 1007.88 1007.82 1007.76 1007.71 1007.69 1007.73 1007.87 1008.11 1008.45 1008.87 1009.34 1009.82 1010.28 1010.67 1010.97 1011.16 1011.25 1011.26 1011.23 1011.17 1011.12 1011.12 1011.17 1011.29 1011.46 1011.68 1011.91 1012.13 1012.34 1012.51 1012.65 1012.75 1012.82 1012.87
1007.85 1007.99 1008.10 1008.17 1008.23 1008.29 1008.33 1008.36 1008.38 1008.38 1008.38 1008.39 1008.42 1008.50 1008.65 1008.88 1009.20 1009.59 1010.04 1010.50 1010.96 1011.37 1011.71 1011.95 1012.08 1012.12 1012.08 1011.99 1011.89 1011.79 1011.74 1011.73 1011.79 1011.90 1012.06 1012.25 1012.46 1012.66 1012.85 1013.02 1013.16 1013.29 1013.39
Thickness
5830 5829 5826 5825 5820 5815 5811 5808 5805 5803 5801 5797 5794 5791 5790 5791 5790 5790 5787 5786 5784 5782 5780 5779 5777 5775 5772 5769 5768 5765 5763 5762 5762 5757 5754 5757 5760 5759 5758 5758 5756 5754 5753
5828 5827 5826 5823 5820 5815 5812 5809 5806 5804 5802 5799 5797 5795 5793 5792 5791 5790 5787 5786 5784 5782 5782 5778 5777 5775 5772 5769 5767 5765 5761 5761 5761 5755 5749 5745 5749 5754 5758 5757 5755 5753 5752
5828 5826 5824 5822 5821 5816 5813 5812 5808 5806 5803 5801 5798 5796 5793 5791 5789 5787 5786 5786 5784 5782 5779 5778 5776 5775 5772 5768 5767 5765 5761 5757 5759 5758 5751 5743 5740 5745 5751 5754 5754 5752 5751
5833 5829 5825 5823 5822 5820 5818 5814 5810 5807 5805 5802 5798 5794 5790 5786 5786 5786 5785 5785 5784 5782 5780 5778 5776 5774 5772 5769 5767 5765 5763 5759 5755 5756 5756 5753 5750 5742 5740 5746 5749 5750 5749
5837 5832 5829 5826 5825 5824 5821 5816 5811 5808 5806 5803 5800 5796 5792 5790 5789 5787 5785 5784 5783 5781 5779 5777 5775 5773 5771 5769 5767 5765 5763 5760 5756 5754 5753 5752 5751 5749 5741 5737 5741 5744 5747
5840 5836 5833 5829 5826 5825 5823 5818 5811 5807 5806 5803 5800 5796 5792 5790 5787 5785 5783 5783 5782 5780 5779 5777 5775 5773 5771 5769 5766 5764 5762 5760 5758 5756 5754 5751 5747 5745 5743 5738 5737 5738 5742
5840 5836 5831 5827 5824 5823 5821 5817 5811 5806 5805 5802 5799 5796 5793 5791 5787 5785 5783 5782 5780 5779 5778 5777 5774 5771 5769 5768 5766 5763 5761 5760 5758 5756 5755 5753 5752 5750 5747 5741 5737 5737 5739
5841 5837 5833 5828 5825 5822 5820 5816 5810 5806 5804 5801 5798 5796 5794 5791 5788 5786 5784 5782 5781 5780 5779 5777 5774 5771 5769 5767 5764 5762 5760 5759 5758 5757 5755 5754 5754 5752 5749 5744 5738 5732 5733
5841 5838 5835 5830 5826 5822 5819 5816 5810 5806 5803 5801 5797 5794 5792 5789 5786 5784 5783 5782 5781 5780 5778 5775 5772 5770 5768 5765 5763 5760 5758 5757 5756 5755 5754 5753 5752 5751 5750 5746 5742 5733 5726
5840 5838 5835 5831 5827 5823 5819 5816 5811 5806 5804 5800 5797 5793 5790 5788 5785 5782 5780 5779 5778 5777 5775 5773 5770 5768 5766 5763 5761 5758 5757 5755 5753 5753 5751 5750 5750 5749 5748 5745 5743 5739 5732
5839 5837 5835 5832 5829 5825 5819 5814 5809 5804 5801 5799 5797 5793 5789 5787 5783 5779 5778 5776 5775 5773 5771 5769 5767 5764 5762 5760 5758 5756 5754 5752 5750 5750 5748 5746 5746 5744 5744 5742 5740 5737 5733
5838 5836 5834 5830 5827 5822 5818 5812 5808 5803 5800 5798 5795 5792 5788 5784 5780 5777 5776 5774 5772 5770 5768 5766 5764 5761 5759 5757 5755 5752 5751 5749 5747 5746 5744 5742 5742 5740 5739 5737 5736 5733 5731
5833 5831 5828 5824 5821 5818 5815 5811 5807 5803 5800 5797 5792 5788 5785 5781 5778 5775 5773 5771 5769 5767 5765 5763 5760 5758 5756 5753 5751 5749 5747 5746 5744 5743 5741 5739 5737 5734 5734 5732 5730 5729 5728
5826 5823 5819 5817 5816 5813 5811 5808 5805 5802 5798 5794 5789 5784 5781 5778 5775 5773 5770 5768 5766 5763 5761 5759 5757 5755 5753 5750 5747 5746 5743 5742 5741 5740 5738 5735 5733 5730 5729 5728 5725 5723 5720
5815 5814 5812 5811 5810 5808 5805 5804 5801 5798 5795 5789 5785 5781 5778 5775 5772 5769 5767 5765 5762 5761 5758 5755 5753 5751 5749 5746 5743 5742 5740 5737 5736 5735 5734 5732 5729 5727 5724 5723 5720 5718 5714
5807 5807 5807 5805 5803 5801 5799 5798 5795 5793 5790 5784 5780 5777 5773 5770 5767 5765 5763 5760 5757 5756 5754 5751 5748 5746 5744 5740 5738 5736 5735 5733 5731 5729 5728 5727 5725 5722 5719 5717 5715 5712 5709
5801 5801 5801 5800 5798 5797 5795 5792 5791 5789 5783 5779 5776 5772 5768 5765 5762 5761 5757 5754 5752 5750 5748 5746 5743 5740 5737 5735 5733 5731 5729 5728 5726 5724 5722 5722 5720 5717 5714 5711 5709 5707 5705
5798 5797 5798 5796 5796 5794 5791 5788 5786 5782 5778 5774 5771 5768 5764 5760 5757 5754 5751 5749 5746 5744 5742 5740 5738 5735 5732 5729 5727 5725 5724 5723 5721 5720 5717 5714 5712 5711 5708 5706 5704 5702 5700
5791 5793 5794 5792 5790 5787 5784 5781 5776 5773 5770 5767 5764 5762 5759 5755 5751 5747 5744 5743 5740 5738 5736 5735 5732 5729 5726 5723 5721 5718 5718 5716 5715 5714 5712 5710 5706 5703 5701 5698 5697 5695 5693
5784 5785 5786 5785 5781 5779 5777 5772 5767 5764 5762 5760 5758 5757 5754 5750 5746 5743 5740 5738 5735 5733 5731 5729 5727 5725 5722 5718 5715 5712 5712 5710 5708 5707 5705 5703 5700 5697 5693 5691 5689 5687 5686
5775 5776 5775 5773 5771 5770 5768 5763 5759 5756 5756 5755 5753 5750 5748 5745 5741 5738 5735 5732 5729 5727 5724 5723 5722 5721 5717 5713 5709 5706 5704 5703 5702 5701 5699 5697 5693 5690 5687 5684 5683 5681 5679
5764 5764 5762 5761 5761 5761 5758 5753 5750 5751 5751 5748 5745 5743 5742 5740 5737 5732 5729 5726 5723 5720 5718 5717 5716 5715 5712 5708 5704 5700 5698 5696 5694 5693 5693 5691 5687 5684 5681 5678 5677 5674 5671
5752 5753 5751 5749 5750 5750 5749 5744 5743 5744 5742 5739 5737 5736 5735 5732 5730 5726 5722 5719 5717 5715 5713 5711 5709 5708 5707 5703 5700 5695 5692 5689 5687 5687 5685 5682 5679 5677 5675 5673 5670 5667 5665
5739 5740 5738 5737 5736 5738 5738 5737 5737 5737 5734 5731 5729 5729 5727 5725 5723 5720 5718 5715 5712 5709 5706 5705 5703 5701 5700 5696 5693 5690 5686 5682 5680 5679 5677 5675 5673 5670 5669 5667 5664 5661 5659
5728 5728 5727 5725 5726 5727 5727 5728 5728 5727 5724 5723 5722 5721 5721 5718 5715 5713 5711 5709 5706 5704 5700 5699 5697 5693 5690 5686 5684 5682 5679 5676 5673 5669 5669 5668 5666 5664 5662 5660 5658 5655 5653
5718 5717 5716 5716 5716 5717 5716 5717 5718 5717 5715 5713 5714 5714 5713 5712 5710 5707 5702 5699 5697 5694 5692 5690 5688 5685 5681 5678 5675 5672 5669 5666 5663 5660 5661 5660 5658 5656 5654 5652 5650 5647 5645